DW3546 Weather Reports


time (UTC)temp
F
wind
direction
speed
knots
gust
knots
rain 1hr
in
rain 24hr
in
rain mn
in
humidity
%
barometer
mb
20260507040516 54 0.0 0.0 0.00 0.00 0.00 90 1019.5
20260507035516 54 0.0 0.0 0.00 0.00 0.00 89 1019.4
20260507034516 55 0.0 0.0 0.00 0.00 0.00 87 1019.5
20260507033628 55 0.0 0.0 0.00 0.00 0.00 87 1019.4
20260507032515 56 0.0 0.0 0.00 0.00 0.00 85 1019.3
20260507031520 57 0.0 0.0 0.00 0.00 0.00 83 1019.4
20260507030515 58 0.0 0.0 0.00 0.00 0.00 81 1019.3
20260507025515 59 0.0 0.9 0.00 0.00 0.00 79 1019.4
20260507024528 61 0.0 0.9 0.00 0.00 0.00 76 1019.3
20260507023516 61 0.0 0.9 0.00 0.00 0.00 75 1019.3
20260507022535 62 0.0 0.9 0.00 0.00 0.00 73 1019.5
20260507021515 63 0.0 1.7 0.00 0.00 0.00 72 1019.5
20260507020515 63 0 0.9 2.6 0.00 0.00 0.00 71 1019.5
20260507015515 65 0 0.9 1.7 0.00 0.00 0.00 69 1019.7
20260507014515 65 0 0.9 1.7 0.00 0.00 0.00 69 1019.7
20260507013516 65 0.0 2.6 0.00 0.00 0.00 69 1019.8
20260507012515 66 0.0 0.9 0.00 0.00 0.00 68 1019.8
20260507011516 65 0.0 2.6 0.00 0.00 0.00 68 1019.7
20260507010556 65 338 1.7 3.5 0.00 0.00 0.00 67 1019.7
20260507005515 65 0 2.6 5.2 0.00 0.00 0.00 67 1019.8
20260507004515 66 0 1.7 6.1 0.00 0.00 0.00 67 1019.9
20260507003515 66 23 1.7 5.2 0.00 0.00 0.00 67 1019.9
20260507002515 66 338 0.9 5.2 0.00 0.00 0.00 67 1019.9
20260507001515 66 45 1.7 4.3 0.00 0.00 0.00 66 1019.9
20260507000536 66 338 1.7 5.2 0.00 0.00 0.00 66 1020.0
20260506235515 67 45 1.7 7.0 0.00 0.00 0.00 66 1020.0
20260506234515 66 338 1.7 4.3 0.00 0.00 0.00 66 1020.0
20260506233535 67 0 1.7 5.2 0.00 0.00 0.00 65 1020.0
20260506232535 68 0 2.6 6.1 0.00 0.00 0.00 64 1020.2
20260506231535 69 0 1.7 3.5 0.00 0.00 0.00 63 1020.3
20260506230515 68 23 0.9 5.2 0.00 0.00 0.00 64 1020.4
20260506225515 67 0 0.9 4.3 0.00 0.00 0.00 65 1020.4
20260506224536 66 23 1.7 5.2 0.00 0.00 0.00 65 1020.4
20260506223537 66 0 2.6 5.2 0.00 0.00 0.00 65 1020.6
20260506222537 66 0 2.6 4.3 0.00 0.00 0.00 65 1020.6
20260506221517 65 338 1.7 4.3 0.00 0.00 0.00 66 1020.5
20260506220517 65 338 0.9 3.5 0.00 0.00 0.00 66 1020.6
20260506215549 64 0 1.7 5.2 0.00 0.00 0.00 68 1020.8
20260506215017 64 23 2.6 6.1 0.00 0.00 0.00 68 1020.8
20260506214017 64 0 1.7 6.1 0.00 0.00 0.00 68 1021.0
20260506213017 64 293 0.9 3.5 0.00 0.00 0.00 70 1021.0
20260506212017 63 338 1.7 4.3 0.00 0.00 0.00 69 1021.0
20260506211017 64 90 1.7 5.2 0.00 0.00 0.00 69 1021.3
20260506210017 64 68 0.9 6.1 0.00 0.00 0.00 69 1021.3
20260506205017 63 23 2.6 7.0 0.00 0.00 0.00 71 1021.3
20260506204137 63 23 1.7 6.1 0.00 0.00 0.00 71 1021.2
20260506203018 62 23 1.7 4.3 0.00 0.00 0.00 71 1021.4
20260506202037 62 0 2.6 5.2 0.00 0.00 0.00 72 1021.5
20260506201017 62 45 1.7 6.1 0.00 0.00 0.00 71 1021.5
20260506200017 61 0 1.7 4.3 0.00 0.00 0.00 72 1021.5
20260506195017 60 338 0.9 3.5 0.00 0.00 0.00 74 1021.5
20260506194035 61 315 1.7 4.3 0.00 0.00 0.00 74 1021.7
20260506193517 60 23 0.9 4.3 0.00 0.00 0.00 75 1021.5
20260506192517 60 45 1.7 5.2 0.00 0.00 0.00 75 1021.5
20260506191537 60 23 0.9 3.5 0.00 0.00 0.00 76 1021.6
20260506190517 59 0 1.7 5.2 0.00 0.00 0.00 78 1021.7
20260506185517 59 23 2.6 5.2 0.00 0.00 0.00 77 1021.7
20260506184516 58 23 0.9 4.3 0.00 0.00 0.00 81 1021.6
20260506183517 57 0 1.7 5.2 0.00 0.00 0.00 80 1021.6
20260506182517 57 0 0.9 3.5 0.00 0.00 0.00 82 1021.6
20260506181537 57 315 0.9 3.5 0.00 0.00 0.00 84 1021.7
20260506180516 56 0 1.7 4.3 0.00 0.00 0.00 84 1021.6
20260506175517 55 0.0 1.7 0.00 0.00 0.00 90 1021.5
20260506174517 52 293 0.9 2.6 0.00 0.00 0.00 93 1021.3
20260506173517 51 0.0 2.6 0.00 0.00 0.00 93 1021.1
20260506172517 51 270 1.7 5.2 0.00 0.00 0.00 94 1021.1
20260506171516 51 270 1.7 4.3 0.00 0.00 0.00 94 1021.1
20260506170516 51 0.0 1.7 0.00 0.00 0.00 95 1021.2
20260506165536 50 315 0.9 3.5 0.00 0.00 0.00 95 1021.1
20260506164516 50 0.0 2.6 0.00 0.00 0.00 96 1021.1
20260506163516 50 0.0 0.9 0.00 0.00 0.00 96 1021.1
20260506162516 50 0.0 0.0 0.00 0.00 0.00 96 1021.1
20260506161535 50 0.0 0.0 0.00 0.00 0.00 96 1021.0
20260506160517 49 0.0 2.6 0.00 0.00 0.00 96 1020.8
20260506155517 49 0.0 1.7 0.00 0.00 0.00 96 1020.9
20260506154516 49 0.0 1.7 0.00 0.00 0.00 96 1021.0
20260506153516 49 0.0 2.6 0.00 0.00 0.00 96 1021.0
20260506152537 49 0.0 0.0 0.00 0.00 0.00 96 1020.9
20260506151516 49 0.0 0.9 0.00 0.00 0.00 96 1021.0
20260506150517 49 0.0 2.6 0.00 0.00 0.00 96 1021.0
20260506145516 49 0.0 1.7 0.00 0.00 0.00 96 1021.0
20260506144516 49 0.0 0.9 0.00 0.00 0.00 96 1021.0
20260506143516 49 0.0 0.0 0.00 0.00 0.00 96 1020.9
20260506142516 48 0.0 0.9 0.00 0.00 0.00 96 1020.8
20260506141516 48 0.0 0.9 0.00 0.00 0.00 95 1020.7
20260506140516 48 0.0 1.7 0.00 0.00 0.00 96 1020.7
20260506135516 48 0.0 0.0 0.00 0.00 0.00 95 1020.4
20260506134516 48 0.0 0.0 0.00 0.00 0.00 95 1020.2
20260506133536 48 0.0 0.9 0.00 0.00 0.00 95 1020.2
20260506132517 48 0.0 0.9 0.00 0.00 0.00 95 1020.0
20260506131637 48 0.0 0.0 0.00 0.00 0.00 95 1020.0
20260506130516 48 0.0 0.0 0.00 0.00 0.00 95 1020.1
20260506125556 48 0.0 1.7 0.00 0.00 0.00 95 1020.0
20260506124516 48 0.0 0.0 0.00 0.00 0.00 95 1020.0
20260506123516 48 0.0 0.0 0.00 0.00 0.00 95 1019.7
20260506122516 48 0.0 0.0 0.00 0.00 0.00 95 1019.8
20260506121516 48 0.0 0.0 0.00 0.00 0.00 95 1019.7
20260506120637 48 0.0 0.0 0.00 0.00 0.00 95 1019.5
20260506115536 48 0.0 0.0 0.00 0.00 0.00 95 1019.5
20260506114516 48 0.0 0.0 0.00 0.00 0.00 95 1019.5
20260506113516 48 0.0 0.0 0.00 0.00 0.00 95 1019.5
20260506112537 48 0.0 0.0 0.00 0.00 0.00 95 1019.4
20260506111516 48 0.0 0.0 0.00 0.00 0.00 95 1019.5
20260506110516 48 0.0 0.0 0.00 0.00 0.00 95 1019.3
20260506105516 48 0.0 0.0 0.00 0.00 0.00 95 1019.3
20260506104517 48 0.0 0.0 0.00 0.00 0.00 95 1019.2
20260506103516 48 0.0 0.0 0.00 0.00 0.00 95 1019.2
20260506102516 48 0.0 0.0 0.00 0.00 0.00 95 1019.2
20260506101536 48 0.0 0.0 0.00 0.00 0.00 95 1019.3
20260506100516 48 0.0 0.0 0.00 0.00 0.00 95 1019.4
20260506095516 48 0.0 0.0 0.00 0.00 0.00 95 1019.4
20260506094516 48 0.0 0.9 0.00 0.00 0.00 95 1019.4
20260506093516 48 0.0 0.0 0.00 0.00 0.00 95 1019.4
20260506092536 48 0.0 0.0 0.00 0.00 0.00 95 1019.6
20260506091516 48 0.0 0.0 0.00 0.00 0.00 94 1019.4
20260506090516 48 0.0 0.0 0.00 0.00 0.00 94 1019.2
20260506085516 48 0.0 0.9 0.00 0.00 0.00 94 1019.2
20260506084515 49 0.0 0.0 0.00 0.00 0.00 94 1019.2
20260506083516 49 0.0 0.0 0.00 0.00 0.00 94 1019.2
20260506082515 49 0.0 0.0 0.00 0.00 0.00 94 1019.3
20260506081516 49 0.0 0.0 0.00 0.00 0.00 93 1019.4
20260506080516 49 0.0 0.9 0.00 0.00 0.00 93 1019.3
20260506073516 49 0.0 0.0 0.00 0.00 0.00 93 1019.1
20260506072516 49 0.0 0.0 0.00 0.00 0.00 92 1019.1
20260506071515 49 0.0 0.0 0.00 0.00 0.00 92 1018.9
20260506070515 49 0.0 0.9 0.00 0.00 0.00 92 1019.0
20260506062516 50 0.0 0.0 0.00 0.00 0.00 91 1018.7
20260506061516 50 0.0 0.0 0.00 0.00 0.00 91 1018.7
20260506060536 50 0.0 0.0 0.00 0.00 0.00 91 1018.6
20260506050536 50 0.0 0.0 0.00 0.00 0.00 91 1018.4
20260506044516 50 0.0 0.0 0.00 0.00 0.00 91 1018.3
20260506043516 50 0.0 0.9 0.00 0.00 0.00 91 1018.1
20260506042516 50 0.0 0.0 0.00 0.00 0.00 91 1018.0
20260506041516 50 0.0 0.0 0.00 0.00 0.00 91 1017.9